Content
SEND FEEDBACK

Daily
Averages
Monthly
Summary
United States of America

BERKELEY, MISSOURI


Home > North America > United States > Missouri
Elevation: 564 feet     Latitude: 38 45N     Longitude: 090 22W

WEATHER
 
SELECT A DAY
Number of Records: 203,416;   Date Range: 1/1/95 - 7/26/14
 
SHARE

PRINT THIS DATA

[ ← Previous Day ]
WEATHER ALMANAC - APRIL 23, 2013
[ Next Day → ]
[ °C ]   °F
Weather ElementAverageHighLow
Temperature50.7 °F62.1 °F (1:51 am)41 °F (9:08 pm)
Dewpoint45.3 °F55.4 °F (1:36 pm)37 °F (11:51 pm)
Humidity82.8 %93 % (3:36 pm)53 % (1:51 am)
Barometer29.96 in30.04 in (11:51 pm)29.88 in (2:51 pm)
Wind Speed10.4 mph21.9 mph (3:27 pm)
Wind Gust27.6 mph (3:36 pm)
Weather ElementAverage
Visibility5.3 mi
Wind DirectionWSW (253.3 °)

Weather ElementTotal
Precipitation1.47 in
Heating Degree Days13.5 (Base 65)
Growing Degree Days1.6 (Base 50)
Averaged from 49 records on April 23, 2013
WEATHER CONDITIONS BREAKOUT
WIND DIRECTION BREAKOUT
WEATHER BY HOUR - APRIL 23, 2013
[ °C ]   °F
Local TimeTemperatureDewpointHumidityBarometerVisibilityWind DirectionWind SpeedGust SpeedPrecipitationEventsConditions
1:51 AM62.1 °F45.0 °F53 %29.97 in10.0 miSE (140°)8.1 mphMostly Cloudy
2:51 AM60.1 °F46.0 °F60 %29.97 in10.0 miSE (140°)5.8 mphMostly Cloudy
3:51 AM61.0 °F45.0 °F56 %29.97 in10.0 miSE (140°)8.1 mphOvercast
4:51 AM60.1 °F46.0 °F60 %29.94 in10.0 miSE (140°)6.9 mphOvercast
5:51 AM60.1 °F46.0 °F60 %29.94 in10.0 miSouth (170°)6.9 mphOvercast
6:51 AM60.1 °F46.0 °F60 %29.93 in10.0 miSE (140°)5.8 mphOvercast
7:51 AM59.0 °F48.9 °F69 %29.97 in6.0 miWest (270°)13.8 mph18.4 mph0.00 inRainLight Rain
8:09 AM57.2 °F50.0 °F77 %30.01 in4.0 miWest (260°)8.1 mph0.02 inRainLight Rain
8:51 AM55.9 °F51.1 °F84 %30.00 in4.0 miWest (260°)4.6 mph0.05 inRainLight Rain
9:00 AM55.4 °F51.8 °F88 %30.01 in3.0 miWest (270°)4.6 mph0.01 inRainLight Rain
9:51 AM55.9 °F52.0 °F87 %30.01 in3.0 miWest (280°)5.8 mph0.07 inRainLight Rain
10:08 AM55.4 °F51.8 °F88 %30.03 in2.5 miSSW (200°)4.6 mph0.03 inRainLight Rain
10:37 AM57.2 °F53.6 °F88 %29.99 in5.0 miSE (130°)5.8 mph0.08 inRainLight Rain
10:42 AM57.2 °F53.6 °F88 %29.98 in6.0 miESE (120°)5.8 mph0.08 inRainLight Rain
10:51 AM57.0 °F53.1 °F87 %29.96 in7.0 miESE (110°)6.9 mph0.08 inRainLight Rain
11:51 AM57.0 °F53.1 °F87 %29.94 in6.0 miESE (110°)6.9 mph0.02 inRainLight Rain
12:23 PM57.2 °F53.6 °F88 %29.93 in7.0 miEast (100°)5.8 mph0.01 inMostly Cloudy
12:51 PM59.0 °F55.0 °F87 %29.91 in6.0 miESE (110°)4.6 mph0.01 inOvercast
1:11 PM60.8 °F53.6 °F77 %29.91 in8.0 miSE (140°)6.9 mph0.00 inRainLight Rain
1:36 PM60.8 °F55.4 °F82 %29.90 in7.0 miSSE (160°)11.5 mph0.00 inRainLight Rain
1:51 PM59.0 °F53.1 °F81 %29.89 in5.0 miSSE (160°)9.2 mph0.00 inRainLight Rain
2:51 PM59.0 °F54.0 °F83 %29.88 in6.0 miSSW (200°)4.6 mph0.00 inHaze
2:58 PM57.2 °F53.6 °F88 %29.90 in6.0 miSSW (200°)4.6 mphOvercast
3:06 PM59.0 °F55.4 °F88 %29.90 in4.0 miSW (230°)4.6 mph0.00 inRainLight Rain
3:27 PM50.0 °F46.4 °F87 %29.90 in6.0 miNW (320°)21.9 mph26.5 mph0.02 inRainLight Rain
3:36 PM48.2 °F46.4 °F93 %29.91 in8.0 miNW (320°)17.3 mph27.6 mph0.02 inRainLight Rain
3:51 PM48.0 °F45.0 °F89 %29.90 in7.0 miNW (320°)17.3 mph26.5 mph0.02 inRainLight Rain
4:42 PM46.4 °F42.8 °F87 %29.91 in4.0 miNNW (330°)15.0 mph20.7 mph0.00 inRainLight Rain
4:51 PM45.0 °F42.1 °F90 %29.91 in4.0 miNW (310°)15.0 mph21.9 mph0.00 inRainLight Rain
5:38 PM44.6 °F41.0 °F87 %29.92 in1.5 miNNW (340°)16.1 mph0.04 inRainRain
5:51 PM44.1 °F41.0 °F89 %29.92 in3.0 miNorth (350°)12.7 mph20.7 mph0.07 inRainRain
6:01 PM42.8 °F39.2 °F87 %29.92 in5.0 miNorth (360°)11.5 mph0.01 inRainLight Rain
6:19 PM42.8 °F39.2 °F87 %29.93 in2.0 miNNW (330°)12.7 mph20.7 mph0.03 inRainHeavy Rain
6:27 PM42.8 °F39.2 °F87 %29.93 in4.0 miNNW (330°)18.4 mph23.0 mph0.06 inRainLight Rain
6:36 PM42.8 °F39.2 °F87 %29.92 in3.0 miNNW (340°)16.1 mph24.2 mph0.07 inRainLight Rain
6:51 PM42.1 °F39.0 °F89 %29.94 in3.0 miNNW (330°)12.7 mph0.09 inRainLight Rain
7:15 PM42.8 °F39.2 °F87 %29.95 in2.0 miNNW (330°)13.8 mph20.7 mph0.02 inRainHeavy Rain
7:39 PM42.8 °F39.2 °F87 %29.95 in4.0 miNNW (330°)15.0 mph21.9 mph0.08 inRainLight Rain
7:51 PM42.1 °F37.9 °F85 %29.96 in3.0 miNW (320°)11.5 mph0.09 inRainLight Rain
8:41 PM42.8 °F39.2 °F87 %29.98 in4.0 miNNW (330°)10.4 mph0.09 inRainLight Rain
8:51 PM42.1 °F37.9 °F85 %29.99 in4.0 miNNW (330°)12.7 mph0.09 inRainLight Rain
9:08 PM41.0 °F37.4 °F87 %29.99 in3.0 miNNW (330°)16.1 mph0.01 inRainRain
9:31 PM41.0 °F37.4 °F87 %30.00 in3.0 miNNW (330°)9.2 mph19.6 mph0.03 inRainLight Rain
9:51 PM41.0 °F37.9 °F89 %30.01 in4.0 miNNW (340°)11.5 mph0.05 inRainRain
10:12 PM41.0 °F37.4 °F87 %30.01 in8.0 miNNW (330°)12.7 mph0.01 inRainLight Rain
10:43 PM41.0 °F37.4 °F87 %30.02 in5.0 miNNW (330°)10.4 mph0.03 inRainRain
10:51 PM41.0 °F37.9 °F89 %30.03 in5.0 miNW (320°)10.4 mph0.04 inRainLight Rain
11:43 PM41.0 °F37.4 °F87 %30.03 in5.0 miNW (320°)15.0 mph19.6 mph0.01 inRainLight Rain
11:51 PM41.0 °F37.0 °F86 %30.04 in5.0 miNW (310°)13.8 mph0.03 inRainLight Rain
Hourly data recorded from KSTL, located miles away from Berkeley, Missouri







STORIES FROM OUR PARTNERS